• Em Portugal
  • Lista de países
  • Para 7 dias
  • Temperatura da água
  • Mapas de satélite
  • Mapa do tempo
  • Widgets de tempo
  • user-avatar
    Iniciar Sessão

    Previsão horária em Dzerzhinsk

    Hoje, 19 Outubro, Sexta-feira

    Tempo Temperatura Precipitação Vento Pressão Humidade
    00:00 +14°C° 0 mm 3 m/s 751 mmHg 52%
    01:00 +14°C° 0 mm 3 m/s 751 mmHg 54%
    02:00 +13°C° 0 mm 3 m/s 750 mmHg 56%
    03:00 +14°C° 0 mm 2 m/s 750 mmHg 60%
    04:00 +13°C° 0 mm 2 m/s 750 mmHg 62%
    05:00 +13°C° 0 mm 2 m/s 750 mmHg 64%
    06:00 +12°C° 0 mm 3 m/s 750 mmHg 66%
    07:00 +13°C° 0 mm 3 m/s 750 mmHg 63%
    08:00 +14°C° 0 mm 3 m/s 750 mmHg 61%
    09:00 +15°C° 0 mm 4 m/s 750 mmHg 58%
    10:00 +17°C° 0 mm 4 m/s 749 mmHg 53%
    11:00 +19°C° 0 mm 4 m/s 749 mmHg 47%
    12:00 +21°C° 0 mm 4 m/s 749 mmHg 42%
    13:00 +21°C° 0 mm 4 m/s 749 mmHg 40%
    14:00 +22°C° 0 mm 4 m/s 748 mmHg 38%
    15:00 +23°C° 0 mm 4 m/s 748 mmHg 36%
    16:00 +21°C° 0 mm 4 m/s 748 mmHg 40%
    17:00 +20°C° 0 mm 3 m/s 748 mmHg 44%
    18:00 +18°C° 0 mm 2 m/s 747 mmHg 48%
    19:00 +18°C° 0 mm 2 m/s 747 mmHg 51%
    20:00 +17°C° 0 mm 2 m/s 747 mmHg 55%
    21:00 +16°C° 0 mm 2 m/s 747 mmHg 58%
    22:00 +16°C° 0 mm 2 m/s 747 mmHg 62%
    23:00 +15°C° 0 mm 2 m/s 747 mmHg 66%

    Amanhã, 20 Outubro, Sábado

    Tempo Temperatura Precipitação Vento Pressão Humidade
    00:00 +15°C° 0 mm 2 m/s 746 mmHg 69%
    01:00 +14°C° 0 mm 2 m/s 746 mmHg 72%
    02:00 +14°C° 0 mm 1 m/s 746 mmHg 75%
    03:00 +13°C° 0 mm 1 m/s 746 mmHg 78%
    04:00 +13°C° 0 mm 1 m/s 746 mmHg 80%
    05:00 +13°C° 0 mm 1 m/s 746 mmHg 81%
    06:00 +13°C° 0 mm 1 m/s 746 mmHg 83%
    07:00 +14°C° 0 mm 1 m/s 746 mmHg 79%
    08:00 +14°C° 0 mm 1 m/s 746 mmHg 75%
    09:00 +15°C° 0 mm 1 m/s 746 mmHg 71%
    10:00 +18°C° 0 mm 1 m/s 746 mmHg 65%
    11:00 +19°C° 0 mm 1 m/s 746 mmHg 59%
    12:00 +21°C° 0 mm 1 m/s 746 mmHg 52%
    13:00 +21°C° 0 mm 1 m/s 746 mmHg 50%
    14:00 +22°C° 0 mm 1 m/s 746 mmHg 47%
    15:00 +22°C° 0 mm 1 m/s 746 mmHg 44%
    16:00 +21°C° 0 mm 1 m/s 745 mmHg 47%
    17:00 +20°C° 0 mm 1 m/s 745 mmHg 51%
    18:00 +19°C° 0 mm 1 m/s 745 mmHg 54%
    19:00 +19°C° 0 mm 1 m/s 745 mmHg 56%
    20:00 +18°C° 0 mm 1 m/s 745 mmHg 58%
    21:00 +18°C° 0 mm 1 m/s 745 mmHg 60%
    22:00 +16°C° 0 mm 1 m/s 745 mmHg 62%
    23:00 +16°C° 0 mm 1 m/s 745 mmHg 64%

    Depois de amanhã, 21 Outubro, Domingo

    Tempo Temperatura Precipitação Vento Pressão Humidade
    00:00 +16°C° 0 mm 1 m/s 745 mmHg 66%
    01:00 +15°C° 0 mm 1 m/s 745 mmHg 68%
    02:00 +15°C° 0 mm 1 m/s 745 mmHg 70%
    03:00 +14°C° 0 mm 1 m/s 745 mmHg 72%
    04:00 +14°C° 0 mm 1 m/s 745 mmHg 75%
    05:00 +14°C° 0 mm 1 m/s 745 mmHg 77%
    06:00 +13°C° 0 mm 1 m/s 745 mmHg 80%
    07:00 +14°C° 0 mm 1 m/s 745 mmHg 77%
    08:00 +15°C° 0 mm 1 m/s 745 mmHg 74%
    09:00 +16°C° 0 mm 1 m/s 745 mmHg 70%
    10:00 +18°C° 0 mm 1 m/s 745 mmHg 65%
    11:00 +19°C° 0 mm 1 m/s 745 mmHg 60%
    12:00 +21°C° 0 mm 1 m/s 745 mmHg 55%
    13:00 +21°C° 0 mm 1 m/s 745 mmHg 54%
    14:00 +21°C° 0 mm 1 m/s 745 mmHg 52%
    15:00 +21°C° 0 mm 1 m/s 745 mmHg 51%
    16:00 +20°C° 0.1 mm 1 m/s 745 mmHg 55%
    17:00 +19°C° 0.1 mm 1 m/s 745 mmHg 59%
    18:00 +19°C° 0.1 mm 1 m/s 746 mmHg 64%
    19:00 +17°C° 0.2 mm 2 m/s 746 mmHg 67%
    20:00 +17°C° 0.2 mm 2 m/s 746 mmHg 70%
    21:00 +16°C° 0.2 mm 2 m/s 746 mmHg 73%
    22:00 +16°C° 0.1 mm 2 m/s 746 mmHg 75%
    23:00 +15°C° 0.1 mm 1 m/s 746 mmHg 77%

    22 Outubro, Segunda-feira

    Tempo Temperatura Precipitação Vento Pressão Humidade
    00:00 +15°C° 0.1 mm 1 m/s 746 mmHg 78%
    01:00 +15°C° 0 mm 1 m/s 746 mmHg 81%
    02:00 +14°C° 0 mm 1 m/s 746 mmHg 83%
    03:00 +14°C° 0 mm 1 m/s 746 mmHg 85%
    04:00 +14°C° 0 mm 2 m/s 746 mmHg 86%
    05:00 +14°C° 0 mm 2 m/s 746 mmHg 87%
    06:00 +14°C° 0 mm 2 m/s 746 mmHg 88%
    07:00 +13°C° 0 mm 3 m/s 746 mmHg 86%
    08:00 +14°C° 0 mm 3 m/s 746 mmHg 85%
    09:00 +14°C° 0 mm 3 m/s 746 mmHg 83%
    10:00 +16°C° 0.2 mm 3 m/s 746 mmHg 82%
    11:00 +16°C° 0.2 mm 3 m/s 746 mmHg 81%
    12:00 +16°C° 0.2 mm 3 m/s 747 mmHg 81%
    13:00 +16°C° 1.2 mm 3 m/s 746 mmHg 82%
    14:00 +16°C° 1.2 mm 3 m/s 746 mmHg 84%
    15:00 +16°C° 1.2 mm 3 m/s 746 mmHg 86%
    16:00 +16°C° 0.9 mm 2 m/s 746 mmHg 88%
    17:00 +15°C° 0.9 mm 2 m/s 746 mmHg 89%
    18:00 +15°C° 0.9 mm 2 m/s 746 mmHg 91%
    19:00 +15°C° 0.6 mm 2 m/s 745 mmHg 91%
    20:00 +15°C° 0.6 mm 2 m/s 745 mmHg 91%
    21:00 +15°C° 0.6 mm 2 m/s 745 mmHg 91%
    22:00 +15°C° 0.4 mm 2 m/s 745 mmHg 92%
    23:00 +15°C° 0.4 mm 2 m/s 745 mmHg 92%

    23 Outubro, Terça-feira

    Tempo Temperatura Precipitação Vento Pressão Humidade
    00:00 +14°C° 0.4 mm 2 m/s 745 mmHg 92%
    01:00 +14°C° 0.1 mm 2 m/s 745 mmHg 92%
    02:00 +14°C° 0.1 mm 2 m/s 744 mmHg 92%
    03:00 +14°C° 0.1 mm 2 m/s 744 mmHg 92%
    04:00 +14°C° 0 mm 2 m/s 744 mmHg 92%
    05:00 +14°C° 0 mm 2 m/s 744 mmHg 93%
    06:00 +13°C° 0 mm 1 m/s 744 mmHg 93%
    07:00 +14°C° 0 mm 1 m/s 744 mmHg 91%
    08:00 +14°C° 0 mm 1 m/s 744 mmHg 88%
    09:00 +14°C° 0 mm 1 m/s 744 mmHg 86%
    10:00 +15°C° 0 mm 1 m/s 744 mmHg 82%
    11:00 +16°C° 0 mm 1 m/s 744 mmHg 78%
    12:00 +16°C° 0 mm 1 m/s 744 mmHg 73%
    13:00 +16°C° 0 mm 1 m/s 744 mmHg 72%
    14:00 +18°C° 0 mm 1 m/s 744 mmHg 70%
    15:00 +18°C° 0 mm 1 m/s 744 mmHg 69%
    16:00 +16°C° 0 mm 1 m/s 744 mmHg 71%
    17:00 +16°C° 0 mm 1 m/s 744 mmHg 74%
    18:00 +15°C° 0 mm 1 m/s 744 mmHg 77%
    19:00 +15°C° 0 mm 1 m/s 744 mmHg 78%
    20:00 +14°C° 0 mm 1 m/s 743 mmHg 79%
    21:00 +14°C° 0 mm 1 m/s 743 mmHg 80%
    22:00 +14°C° 0 mm 1 m/s 743 mmHg 81%
    23:00 +13°C° 0 mm 1 m/s 743 mmHg 82%

    24 Outubro, Quarta-feira

    Tempo Temperatura Precipitação Vento Pressão Humidade
    00:00 +13°C° 0 mm 1 m/s 743 mmHg 83%
    01:00 +13°C° 0 mm 1 m/s 743 mmHg 82%
    02:00 +13°C° 0 mm 1 m/s 742 mmHg 82%
    03:00 +13°C° 0 mm 1 m/s 742 mmHg 81%
    04:00 +13°C° 0 mm 1 m/s 742 mmHg 82%
    05:00 +13°C° 0 mm 1 m/s 742 mmHg 83%
    06:00 +11°C° 0 mm 0 m/s 742 mmHg 83%
    07:00 +13°C° 0 mm 1 m/s 741 mmHg 81%
    08:00 +13°C° 0 mm 1 m/s 741 mmHg 78%
    09:00 +13°C° 0 mm 1 m/s 741 mmHg 76%
    10:00 +14°C° 0.1 mm 1 m/s 740 mmHg 74%
    11:00 +14°C° 0.1 mm 1 m/s 740 mmHg 72%
    12:00 +15°C° 0.1 mm 1 m/s 740 mmHg 70%
    13:00 +15°C° 0.1 mm 1 m/s 739 mmHg 69%
    14:00 +15°C° 0.1 mm 1 m/s 738 mmHg 69%
    15:00 +15°C° 0.1 mm 1 m/s 738 mmHg 69%
    16:00 +15°C° 0 mm 1 m/s 737 mmHg 69%
    17:00 +14°C° 0 mm 2 m/s 737 mmHg 70%
    18:00 +14°C° 0 mm 2 m/s 736 mmHg 71%
    19:00 +13°C° 0 mm 2 m/s 736 mmHg 72%
    20:00 +12°C° 0 mm 2 m/s 736 mmHg 72%
    21:00 +11°C° 0 mm 3 m/s 736 mmHg 73%
    22:00 +10°C° 0 mm 3 m/s 736 mmHg 72%
    23:00 +10°C° 0 mm 3 m/s 735 mmHg 71%
    Mostrar mais